EN

Hourly Weather Melehina

Today, 30 September, Wednesday

Time Temperature Precipitation Wind Pressure Humidity
00:00 +9°C° 0 mm 1 mps 755 mmHg 93%
01:00 +7°C° 0 mm 0 mps 755 mmHg 93%
02:00 +7°C° 0 mm 0 mps 755 mmHg 93%
03:00 +7°C° 0 mm 0 mps 755 mmHg 93%
04:00 +7°C° 0 mm 0 mps 755 mmHg 93%
05:00 +6°C° 0 mm 0 mps 755 mmHg 94%
06:00 +6°C° 0 mm 0 mps 755 mmHg 94%
07:00 +7°C° 0 mm 1 mps 755 mmHg 94%
08:00 +8°C° 0 mm 0 mps 755 mmHg 88%
09:00 +10°C° 0 mm 0 mps 756 mmHg 82%
10:00 +12°C° 0 mm 0 mps 756 mmHg 76%
11:00 +13°C° 0 mm 0 mps 756 mmHg 72%
12:00 +14°C° 0 mm 0 mps 756 mmHg 68%
13:00 +16°C° 0 mm 1 mps 755 mmHg 63%
14:00 +15°C° 0 mm 0 mps 755 mmHg 65%
15:00 +15°C° 0 mm 0 mps 755 mmHg 67%
16:00 +14°C° 0 mm 0 mps 755 mmHg 69%
17:00 +13°C° 0 mm 0 mps 755 mmHg 75%
18:00 +11°C° 0 mm 0 mps 755 mmHg 82%
19:00 +9°C° 0 mm 0 mps 755 mmHg 88%
20:00 +9°C° 0 mm 0 mps 755 mmHg 89%
21:00 +8°C° 0 mm 0 mps 755 mmHg 89%
22:00 +8°C° 0 mm 0 mps 755 mmHg 90%
23:00 +8°C° 0 mm 0 mps 755 mmHg 91%

Tomorrow, 1 October, Thursday

Time Temperature Precipitation Wind Pressure Humidity
00:00 +8°C° 0 mm 0 mps 755 mmHg 91%
01:00 +7°C° 0 mm 0 mps 755 mmHg 92%
02:00 +7°C° 0 mm 0 mps 755 mmHg 92%
03:00 +7°C° 0 mm 0 mps 755 mmHg 92%
04:00 +8°C° 0 mm 1 mps 755 mmHg 92%
05:00 +8°C° 0 mm 1 mps 755 mmHg 92%
06:00 +8°C° 0 mm 1 mps 755 mmHg 93%
07:00 +7°C° 0 mm 1 mps 755 mmHg 93%
08:00 +9°C° 0 mm 1 mps 755 mmHg 85%
09:00 +11°C° 0 mm 1 mps 755 mmHg 78%
10:00 +13°C° 0 mm 1 mps 755 mmHg 71%
11:00 +14°C° 0 mm 1 mps 754 mmHg 68%
12:00 +15°C° 0 mm 1 mps 754 mmHg 66%
13:00 +16°C° 0 mm 1 mps 754 mmHg 63%
14:00 +15°C° 0 mm 1 mps 754 mmHg 67%
15:00 +15°C° 0 mm 1 mps 754 mmHg 71%
16:00 +15°C° 0 mm 1 mps 754 mmHg 75%
17:00 +14°C° 0 mm 1 mps 753 mmHg 80%
18:00 +12°C° 0 mm 1 mps 753 mmHg 86%
19:00 +11°C° 0 mm 1 mps 753 mmHg 91%
20:00 +11°C° 0 mm 1 mps 753 mmHg 92%
21:00 +10°C° 0 mm 1 mps 753 mmHg 93%
22:00 +10°C° 0 mm 1 mps 753 mmHg 95%
23:00 +10°C° 0 mm 1 mps 753 mmHg 95%

Day after tomorrow, 2 October, Friday

Time Temperature Precipitation Wind Pressure Humidity
00:00 +10°C° 0 mm 1 mps 752 mmHg 95%
01:00 +9°C° 0 mm 1 mps 752 mmHg 96%
02:00 +9°C° 0 mm 1 mps 752 mmHg 96%
03:00 +9°C° 0 mm 1 mps 752 mmHg 96%
04:00 +9°C° 0 mm 1 mps 752 mmHg 96%
05:00 +9°C° 0 mm 1 mps 752 mmHg 96%
06:00 +9°C° 0 mm 1 mps 752 mmHg 96%
07:00 +8°C° 0 mm 1 mps 752 mmHg 97%
08:00 +9°C° 0 mm 2 mps 752 mmHg 92%
09:00 +10°C° 0 mm 2 mps 752 mmHg 87%
10:00 +12°C° 0 mm 2 mps 751 mmHg 82%
11:00 +13°C° 0 mm 2 mps 751 mmHg 76%
12:00 +14°C° 0 mm 2 mps 751 mmHg 71%
13:00 +15°C° 0 mm 2 mps 751 mmHg 66%
14:00 +15°C° 0 mm 2 mps 751 mmHg 68%
15:00 +15°C° 0 mm 2 mps 751 mmHg 70%
16:00 +15°C° 0 mm 2 mps 750 mmHg 72%
17:00 +13°C° 0 mm 2 mps 750 mmHg 78%
18:00 +12°C° 0 mm 2 mps 750 mmHg 85%
19:00 +9°C° 0 mm 2 mps 750 mmHg 91%
20:00 +9°C° 0 mm 2 mps 750 mmHg 93%
21:00 +9°C° 0 mm 2 mps 750 mmHg 94%
22:00 +9°C° 0 mm 2 mps 750 mmHg 95%
23:00 +8°C° 0 mm 2 mps 750 mmHg 95%

3 October, Saturday

Time Temperature Precipitation Wind Pressure Humidity
00:00 +8°C° 0 mm 2 mps 750 mmHg 96%
01:00 +8°C° 0 mm 2 mps 750 mmHg 97%
02:00 +7°C° 0 mm 2 mps 750 mmHg 97%
03:00 +7°C° 0 mm 2 mps 750 mmHg 97%
04:00 +6°C° 0 mm 2 mps 750 mmHg 97%
05:00 +6°C° 0 mm 2 mps 750 mmHg 97%
06:00 +6°C° 0 mm 2 mps 750 mmHg 96%
07:00 +6°C° 0 mm 2 mps 750 mmHg 95%
08:00 +7°C° 0.1 mm 2 mps 750 mmHg 93%
09:00 +8°C° 0.1 mm 3 mps 751 mmHg 90%
10:00 +7°C° 0.1 mm 4 mps 751 mmHg 88%
11:00 +7°C° 0 mm 4 mps 751 mmHg 80%
12:00 +6°C° 0 mm 4 mps 752 mmHg 73%
13:00 +6°C° 0 mm 4 mps 752 mmHg 65%
14:00 +7°C° 0 mm 3 mps 753 mmHg 63%
15:00 +7°C° 0 mm 3 mps 753 mmHg 61%
16:00 +7°C° 0 mm 3 mps 753 mmHg 59%
17:00 +4°C° 0 mm 3 mps 754 mmHg 65%
18:00 +4°C° 0 mm 2 mps 754 mmHg 70%
19:00 +3°C° 0 mm 2 mps 754 mmHg 75%
20:00 +2°C° 0 mm 2 mps 755 mmHg 79%
21:00 +1°C° 0 mm 2 mps 755 mmHg 82%
22:00 +1°C° 0 mm 2 mps 755 mmHg 85%
23:00 +1°C° 0 mm 1 mps 756 mmHg 86%

4 October, Sunday

Time Temperature Precipitation Wind Pressure Humidity
00:00 +1°C° 0 mm 1 mps 756 mmHg 87%
01:00 +1°C° 0 mm 1 mps 756 mmHg 88%
02:00 0°C° 0 mm 1 mps 756 mmHg 89%
03:00 0°C° 0 mm 1 mps 756 mmHg 89%
04:00 0°C° 0 mm 1 mps 756 mmHg 89%
05:00 0°C° 0 mm 1 mps 756 mmHg 88%
06:00 0°C° 0 mm 1 mps 757 mmHg 86%
07:00 0°C° 0 mm 1 mps 757 mmHg 85%
08:00 +1°C° 0 mm 1 mps 757 mmHg 76%
09:00 +3°C° 0 mm 1 mps 757 mmHg 67%
10:00 +5°C° 0 mm 1 mps 757 mmHg 58%
11:00 +6°C° 0 mm 1 mps 757 mmHg 54%
12:00 +6°C° 0 mm 1 mps 757 mmHg 49%
13:00 +7°C° 0 mm 1 mps 757 mmHg 45%
14:00 +7°C° 0 mm 1 mps 756 mmHg 47%
15:00 +7°C° 0 mm 1 mps 756 mmHg 49%
16:00 +7°C° 0 mm 1 mps 756 mmHg 52%
17:00 +5°C° 0 mm 1 mps 756 mmHg 57%
18:00 +3°C° 0 mm 1 mps 755 mmHg 63%
19:00 +2°C° 0 mm 1 mps 755 mmHg 69%
20:00 +1°C° 0 mm 1 mps 755 mmHg 70%
21:00 +1°C° 0 mm 1 mps 755 mmHg 71%
22:00 +1°C° 0 mm 1 mps 755 mmHg 72%
23:00 0°C° 0 mm 1 mps 755 mmHg 73%

5 October, Monday

Time Temperature Precipitation Wind Pressure Humidity
00:00 0°C° 0 mm 1 mps 755 mmHg 74%
01:00 0°C° 0 mm 1 mps 755 mmHg 75%
02:00 0°C° 0 mm 1 mps 755 mmHg 76%
03:00 -2°C° 0 mm 2 mps 754 mmHg 78%
04:00 -2°C° 0 mm 2 mps 754 mmHg 79%
05:00 -2°C° 0 mm 2 mps 754 mmHg 81%
06:00 -2°C° 0 mm 2 mps 754 mmHg 82%
07:00 -2°C° 0 mm 2 mps 754 mmHg 84%
08:00 -1°C° 0 mm 2 mps 754 mmHg 77%
09:00 +2°C° 0 mm 2 mps 753 mmHg 70%
10:00 +4°C° 0 mm 2 mps 753 mmHg 63%
11:00 +4°C° 0 mm 3 mps 753 mmHg 62%
12:00 +5°C° 0 mm 3 mps 753 mmHg 61%
13:00 +7°C° 0 mm 3 mps 753 mmHg 60%
14:00 +7°C° 0 mm 3 mps 752 mmHg 64%
15:00 +7°C° 0 mm 3 mps 752 mmHg 68%
16:00 +5°C° 0 mm 3 mps 752 mmHg 72%
17:00 +5°C° 0 mm 2 mps 752 mmHg 77%
18:00 +4°C° 0 mm 2 mps 752 mmHg 81%
19:00 +5°C° 0 mm 1 mps 752 mmHg 86%
20:00 +5°C° 0 mm 1 mps 751 mmHg 85%
21:00 +5°C° 0 mm 1 mps 751 mmHg 85%
22:00 +5°C° 0 mm 1 mps 751 mmHg 85%
23:00 +5°C° 0 mm 1 mps 751 mmHg 85%
Show more

We Need Your Consent

Meteoprog and our Service Providers may store and access personal data such as cookies, device identifiers or other similar technologies on your device and process such data to personalise content and ads, as well as provide social media features and to analyse the traffic.

  • Store and/or access information on your device

    Cookies, device identifiers or other information can be stored or accessed on your device for the purposes indicated above.

  • Personalised ads and content, ad and content measurement, audience insights, and products development

    Ads and content can be personalised based on a profile. More data can be added to better personalise ads and content. Ad and content performance can be measured. Insights about the audience who saw the ads and content can be derived. Such data can be used to develop or improve user’s experience, systems and software.

By clicking ‘I Agree’ you will allow the use of indicated cookies, device identifiers, web beacons or other similar technologies. Your settings can be changed in the browser on your device.

For certain purposes, legitimate interests may be relied on, rather than consent. You can read more about this in our Privacy and Cookie Policy.